Fallon NAS, NV

9:26 PM PDT on May 25, 2017 (GMT -0700)
Fallon Naval Air Station

Weather History for KNFL - November, 2010

Change the Weather History Date:

Friday, November 5, 2010

  Actual Average Record
Temperature  
Mean Temperature 59 °F -  
Max Temperature 75 °F 60 °F 80 °F (2001)
Min Temperature 43 °F 31 °F 3 °F (1935)
Degree Days  
Heating Degree Days 6    
Growing Degree Days 9 (Base 50)    
Moisture  
Dew Point 39 °F    
Average Humidity 59    
Maximum Humidity 82    
Minimum Humidity 27    
Precipitation  
Precipitation 0.00 in - - ()
Sea Level Pressure  
Sea Level Pressure 29.96 in    
Wind  
Wind Speed 3 mph (NNE)    
Max Wind Speed 9 mph    
Max Gust Speed -    
Visibility 10 miles    
Events      
Averages and records for this station are not official NWS values.
T = Trace of Precipitation, MM = Missing Value Source: NWS Daily Summary

Daily Weather History Graph

Daily Weather History Graph

Search for Another Location

Airport or City:

Trip Planner

Search our weather history database for the weather conditions in past years. The results will help you decide how hot, cold, wet, or windy it might be!

Date:

Astronomy

Nov. 05, 2010 Rise Set
Actual Time 7:27 AM PDT 5:48 PM PDT
Civil Twilight 6:59 AM PDT 6:16 PM PDT
Nautical Twilight 6:27 AM PDT 6:48 PM PDT
Astronomical Twilight 5:55 AM PDT 7:20 PM PDT
Moon 6:58 AM PDT (11/5) 5:15 PM PDT (11/5)
Length of Visible Light 11h 17m
Length of Day
10h 21m
Waning Crescent, 0% of the Moon is Illuminated
Nov 5
Waning Crescent
Nov 5
New
Nov 13
First Quarter
Nov 21
Full
Nov 28
Last Quarter

Hourly Weather History & Observations

Time (PDT) Temp. Windchill Dew Point Humidity Pressure Visibility Wind Dir Wind Speed Gust Speed Precip Events Conditions
12:56 AM 45.0 °F - 37.9 °F 76% 30.03 in 10.0 mi Calm Calm - N/A   Clear
1:56 AM 44.1 °F 41.5 °F 37.9 °F 79% 30.01 in 10.0 mi South 4.6 mph - N/A   Clear
2:56 AM 46.0 °F - 37.9 °F 73% 30.01 in 10.0 mi Calm Calm - N/A   Clear
3:56 AM 44.1 °F - 37.0 °F 76% 30.00 in 10.0 mi Calm Calm - N/A   Clear
4:56 AM 43.0 °F - 37.0 °F 80% 30.00 in 10.0 mi Calm Calm - N/A   Clear
5:56 AM 43.0 °F 40.3 °F 37.9 °F 82% 30.00 in 10.0 mi NE 4.6 mph - N/A   Mostly Cloudy
6:56 AM 43.0 °F - 37.0 °F 80% 29.99 in 10.0 mi Calm Calm - N/A   Mostly Cloudy
7:56 AM 44.1 °F 42.5 °F 37.9 °F 79% 30.00 in 10.0 mi NNW 3.5 mph - N/A   Overcast
8:56 AM 48.9 °F - 39.0 °F 69% 30.01 in 10.0 mi Calm Calm - N/A   Overcast
9:56 AM 55.0 °F - 41.0 °F 59% 30.01 in 10.0 mi North 3.5 mph - N/A   Overcast
10:56 AM 60.8 °F - 41.0 °F 48% 30.01 in 10.0 mi Calm Calm - N/A   Overcast
11:56 AM 64.9 °F - 39.9 °F 40% 30.00 in 10.0 mi Calm Calm - N/A   Mostly Cloudy
12:56 PM 69.1 °F - 39.0 °F 33% 29.96 in 10.0 mi NW 3.5 mph - N/A   Mostly Cloudy
1:56 PM 73.0 °F - 39.0 °F 29% 29.94 in 10.0 mi NNE 4.6 mph - N/A   Mostly Cloudy
2:56 PM 75.0 °F - 39.0 °F 27% 29.91 in 10.0 mi Variable 3.5 mph - N/A   Mostly Cloudy
3:56 PM 75.0 °F - 39.0 °F 27% 29.91 in 10.0 mi NE 5.8 mph - N/A   Mostly Cloudy
4:56 PM 70.0 °F - 41.0 °F 35% 29.89 in 10.0 mi NE 8.1 mph - N/A   Mostly Cloudy
5:56 PM 61.0 °F - 42.1 °F 50% 29.89 in 10.0 mi NNE 9.2 mph - N/A   Mostly Cloudy
6:56 PM 60.1 °F - 41.0 °F 49% 29.89 in 10.0 mi NE 6.9 mph - N/A   Mostly Cloudy
7:56 PM 57.0 °F - 39.9 °F 53% 29.89 in 10.0 mi West 3.5 mph - N/A   Clear
8:56 PM 55.9 °F - 41.0 °F 57% 29.90 in 10.0 mi NW 8.1 mph - N/A   Clear
9:56 PM 51.1 °F - 39.0 °F 63% 29.91 in 10.0 mi SSE 5.8 mph - N/A   Clear
10:56 PM 51.1 °F - 42.1 °F 71% 29.92 in 10.0 mi SSW 4.6 mph - N/A   Clear
11:56 PM 48.0 °F - 39.9 °F 74% 29.91 in 10.0 mi SE 6.9 mph - N/A   Clear